Content
SEND FEEDBACK

Daily
Averages
Monthly
Summary
United States of America

MIAMI, NEW MEXICO


Home > North America > United States > New Mexico
Elevation: 6164 feet     Latitude: 36 21N     Longitude: 104 46W

WEATHER
 
SELECT A DAY
Number of Records: 168,086;   Date Range: 10/2/07 - 7/31/14
 
SHARE

PRINT THIS DATA

[ ← Previous Day ]
WEATHER ALMANAC - JANUARY 3, 2013
[ Next Day → ]
[ °C ]   °F
Weather ElementAverageHighLow
Temperature-16 °F18.5 °F (3:55 pm)-31 °F (5:35 am)
Dewpoint-22.1 °F7 °F (2:35 pm)-38.6 °F (5:35 am)
Humidity74.3 %86 % (7:15 pm)54 % (3:55 pm)
Barometer30.22 in30.27 in (8:55 am)30.16 in (2:15 pm)
Wind Speed0.7 mph8.1 mph (2:55 pm)
Weather ElementAverage
Visibility9.9 mi
Wind DirectionNNE (28.1 °)

Weather ElementTotal
Precipitation---
Heating Degree Days71.3 (Base 65)
Averaged from 53 records on January 3, 2013
WEATHER CONDITIONS BREAKOUT
WIND DIRECTION BREAKOUT
WEATHER BY HOUR - JANUARY 3, 2013
[ °C ]   °F
Local TimeTemperatureDewpointHumidityBarometerVisibilityWind DirectionWind SpeedGust SpeedPrecipitationEventsConditions
12:35 AM-19.8 °F-24.7 °F78 %30.18 in10.0 miCalmClear
12:55 AM-21.5 °F-27.6 °F73 %30.18 in10.0 miCalmClear
1:15 AM-22.7 °F-28.3 °F75 %30.19 in10.0 miCalmClear
1:35 AM-25.1 °F-30.3 °F76 %30.20 in10.0 miCalmClear
1:55 AM-23.6 °F-28.8 °F77 %30.20 in10.0 miCalmClear
2:15 AM-23.3 °F-29.0 °F74 %30.20 in10.0 miCalmClear
2:35 AM-23.1 °F-28.8 °F74 %30.20 in10.0 miCalmClear
2:55 AM-25.8 °F-31.5 °F74 %30.21 in10.0 miNorth (350°)3.5 mphClear
3:15 AM-23.4 °F-29.2 °F74 %30.22 in10.0 miCalmClear
3:35 AM-23.6 °F-29.0 °F76 %30.22 in10.0 miSE (140°)4.6 mphClear
3:55 AM-25.1 °F-30.1 °F77 %30.22 in10.0 miCalmClear
4:15 AM-23.8 °F-29.2 °F76 %30.22 in10.0 miCalmClear
4:35 AM-24.5 °F-29.6 °F77 %30.22 in7.0 miCalmClear
4:55 AM-23.4 °F-29.2 °F74 %30.22 in10.0 miCalmClear
5:15 AM-28.7 °F-35.0 °F72 %30.22 in10.0 miCalmClear
5:35 AM-31.0 °F-38.6 °F67 %30.23 in10.0 miCalmClear
5:55 AM-27.4 °F-33.2 °F74 %30.24 in10.0 miCalmClear
6:15 AM-28.7 °F-35.1 °F71 %30.24 in10.0 miCalmClear
6:35 AM-29.7 °F-36.0 °F72 %30.25 in10.0 miCalmClear
6:55 AM-30.1 °F-36.9 °F70 %30.25 in10.0 miCalmClear
7:15 AM-31.0 °F-38.0 °F69 %30.25 in10.0 miCalmClear
7:35 AM-27.0 °F-32.8 °F74 %30.25 in10.0 miCalmClear
7:55 AM-28.5 °F-35.1 °F70 %30.25 in10.0 miCalmClear
8:15 AM-29.6 °F-36.0 °F71 %30.25 in10.0 miCalmClear
8:35 AM-27.6 °F-34.6 °F69 %30.25 in10.0 miCalmClear
8:55 AM-21.1 °F-26.9 °F75 %30.27 in10.0 miNE (40°)6.9 mphClear
9:15 AM-20.9 °F-26.5 °F75 %30.27 in10.0 miCalmClear
9:55 AM-19.7 °F-25.4 °F75 %30.27 in10.0 miCalmClear
10:15 AM-16.8 °F-22.2 °F76 %30.27 in10.0 miCalmClear
10:55 AM-10.5 °F-15.0 °F80 %30.26 in10.0 miCalmClear
11:15 AM-9.6 °F-13.9 °F81 %30.24 in10.0 miNE (40°)3.5 mphClear
11:55 AM-6.0 °F-9.9 °F83 %30.21 in10.0 miCalmClear
12:35 PM-4.2 °F-8.5 °F82 %30.20 in10.0 miCalmClear
12:55 PM-2.2 °F-6.2 °F83 %30.19 in10.0 miCalmClear
1:15 PM1.0 °F-2.9 °F83 %30.18 in10.0 miCalmClear
1:55 PM5.2 °F1.6 °F85 %30.18 in10.0 miCalmClear
2:15 PM6.6 °F2.7 °F84 %30.16 in10.0 miCalmClear
2:35 PM11.8 °F7.0 °F81 %30.16 in10.0 miCalmClear
2:55 PM18.3 °F6.3 °F59 %30.17 in10.0 miWest (280°)8.1 mphClear
3:55 PM18.5 °F4.3 °F54 %30.17 in10.0 miCalmClear
4:15 PM17.2 °F3.4 °F55 %30.17 in10.0 miCalmClear
4:35 PM15.4 °F2.8 °F58 %30.17 in10.0 miWSW (240°)3.5 mphClear
4:55 PM15.4 °F2.1 °F56 %30.18 in10.0 miWest (260°)4.6 mphClear
6:55 PM-9.0 °F-12.8 °F83 %30.21 in10.0 miCalmClear
7:15 PM-10.1 °F-13.4 °F86 %30.21 in10.0 miCalmClear
7:35 PM-12.5 °F-15.5 °F86 %30.21 in10.0 miSE (140°)3.5 mphClear
9:15 PM-21.5 °F-27.0 °F75 %30.22 in10.0 miCalmClear
10:15 PM-22.0 °F-27.9 °F74 %30.22 in10.0 miCalmClear
10:35 PM-20.2 °F-25.6 °F76 %30.23 in10.0 miCalmClear
10:55 PM-23.8 °F-28.8 °F77 %30.24 in10.0 miCalmClear
11:15 PM-24.3 °F-29.7 °F76 %30.23 in10.0 miCalmClear
11:35 PM-25.8 °F-31.0 °F76 %30.22 in10.0 miCalmClear
11:55 PM-28.5 °F-35.1 °F70 %30.22 in10.0 miCalmClear
Hourly data recorded from KAXX, located miles away from Miami, New Mexico







STORIES FROM OUR PARTNERS